This is the latest recevied weather packets stored in our database for station/object PD2BVG. If no packets are shown the sender has not sent any weather packets the latest 1 day(s).
| Time | Temp. | Humidity | Pressure | Rain* | Wind** | Luminosity | Snow |
|---|---|---|---|---|---|---|---|
| 1777955906 | 10.56° C | 90% | 1012.5 hPa | 0 mm | 1.79 m/s, 357° | 5 W/m² | - |
| 1777955846 | 10.56° C | 90% | 1012.5 hPa | 0 mm | 1.79 m/s, 354° | 5 W/m² | - |
| 1777955785 | 10.56° C | 90% | 1012.5 hPa | 0 mm | 1.79 m/s, 341° | 5 W/m² | - |
| 1777955726 | 10.56° C | 90% | 1012.5 hPa | 0 mm | 1.79 m/s, 334° | 5 W/m² | - |
| 1777955665 | 10.56° C | 90% | 1012.5 hPa | 0 mm | 2.24 m/s, 358° | 0 W/m² | - |
| 1777955605 | 10.56° C | 90% | 1012.5 hPa | 0 mm | 2.68 m/s, 347° | 0 W/m² | - |
| 1777955545 | 10.56° C | 90% | 1012.5 hPa | 0 mm | 2.68 m/s, 355° | 0 W/m² | - |
| 1777955483 | 10.56° C | 90% | 1012.5 hPa | 0 mm | 2.24 m/s, 0° | 0 W/m² | - |
| 1777955424 | 10.56° C | 90% | 1012.5 hPa | 0 mm | 1.79 m/s, 350° | 0 W/m² | - |
| 1777955363 | 10.56° C | 90% | 1012.5 hPa | 0 mm | 1.79 m/s, 351° | 0 W/m² | - |
| 1777955302 | 10.56° C | 90% | 1012.4 hPa | 0 mm | 1.79 m/s, 0° | 0 W/m² | - |
| 1777955240 | 10.56° C | 90% | 1012.5 hPa | 0 mm | 2.24 m/s, 3° | 0 W/m² | - |
| 1777955181 | 10.56° C | 90% | 1012.4 hPa | 0 mm | 2.68 m/s, 336° | 0 W/m² | - |
| 1777955120 | 10.56° C | 90% | 1012.5 hPa | 0 mm | 2.68 m/s, 0° | 0 W/m² | - |
| 1777955059 | 10.56° C | 90% | 1012.5 hPa | 0 mm | 3.13 m/s, 331° | 0 W/m² | - |
| 1777954998 | 10.56° C | 90% | 1012.5 hPa | 0 mm | 2.68 m/s, 321° | 0 W/m² | - |
| 1777954939 | 10.56° C | 90% | 1012.3 hPa | 0 mm | 2.24 m/s, 0° | 0 W/m² | - |
| 1777954878 | 10.56° C | 90% | 1012.4 hPa | 0 mm | 2.68 m/s, 338° | 0 W/m² | - |
| 1777954816 | 11.11° C | 90% | 1012.5 hPa | 0 mm | 2.68 m/s, 0° | 0 W/m² | - |
| 1777954752 | 10.56° C | 90% | 1012.4 hPa | 0 mm | 2.68 m/s, 327° | 0 W/m² | - |
| 1777954692 | 11.11° C | 90% | 1012.4 hPa | 0 mm | 2.68 m/s, 327° | 0 W/m² | - |
| 1777954633 | 11.11° C | 90% | 1012.4 hPa | 0 mm | 2.68 m/s, 0° | 0 W/m² | - |
| 1777954570 | 11.11° C | 90% | 1012.4 hPa | 0 mm | 2.68 m/s, 13° | 0 W/m² | - |
| 1777954508 | 11.11° C | 90% | 1012.4 hPa | 0 mm | 2.68 m/s, 320° | 0 W/m² | - |
| 1777954449 | 11.11° C | 90% | 1012.4 hPa | 0 mm | 2.24 m/s, 313° | 0 W/m² | - |
* Rain latest hour (hover to see other rain measurements)
** Current wind speed in m/s (hover to see current wind gust speed)